,,Stat5,,Stat1,,Stat2,,Stat3,,Stat4,,Wind1,,Wind1,
time,status,PA1M_AVG,status,PR1M_SUM,status,RH1M_AVG,status,SR1M_AVG,status,TA1M_AVG,status,W1dAve1m,status,W1sAve1m,
2001-12-06, 00:00:00,VALID,919.028,VALID,0,VALID,96.2986,VALID,-0.0679233,VALID,20.3175,VALID,25,VALID,0.634332,
2001-12-06, 00:01:01,VALID,919.028,VALID,0,VALID,96.3291,VALID,-0.0679233,VALID,20.3243,VALID,23,VALID,0.536607,
2001-12-06, 00:02:00,VALID,919.017,VALID,0,VALID,96.3507,VALID,-0.0509425,VALID,20.3305,VALID,20,VALID,0.574535,
2001-12-06, 00:03:00,VALID,918.999,VALID,0,VALID,96.3673,VALID,-0.0509425,VALID,20.3337,VALID,22,VALID,0.976563,
2001-12-06, 00:04:00,VALID,918.971,VALID,0,VALID,96.4258,VALID,-0.0849042,VALID,20.3436,VALID,18,VALID,1.12204,
2001-12-06, 00:05:00,VALID,918.952,VALID,0,VALID,96.2236,VALID,-0.0509425,VALID,20.3208,VALID,352,VALID,0.447424,
2001-12-06, 00:06:00,VALID,918.96,VALID,0,VALID,96.2032,VALID,-0.0679233,VALID,20.2887,VALID,23,VALID,0.602941,
2001-12-06, 00:07:00,VALID,918.985,VALID,0,VALID,96.2783,VALID,-0.0679233,VALID,20.2952,VALID,123,VALID,0.202069,
2001-12-06, 00:08:00,VALID,918.994,VALID,0,VALID,95.9769,VALID,-0.0849042,VALID,20.2755,VALID,197,VALID,0.274523,
2001-12-06, 00:09:00,VALID,918.988,VALID,0,VALID,95.9616,VALID,-0.0339617,VALID,20.2462,VALID,198,VALID,0.290118,
2001-12-06, 00:10:00,VALID,918.986,VALID,0,VALID,95.9171,VALID,-0.0679233,VALID,20.2338,VALID,199,VALID,0.180321,
2001-12-06, 00:11:00,VALID,918.963,VALID,0,VALID,95.9248,VALID,-0.0679233,VALID,20.2112,VALID,199,VALID,0.000585938,
2001-12-06, 00:12:00,VALID,918.962,VALID,0,VALID,95.8803,VALID,-0.0679233,VALID,20.1918,VALID,199,VALID,0.0272436,
2001-12-06, 00:13:00,VALID,918.948,VALID,0,VALID,95.9769,VALID,-0.0679233,VALID,20.1791,VALID,206,VALID,0.0832031,
2001-12-06, 00:14:00,VALID,918.96,VALID,0,VALID,96.1053,VALID,-0.0679233,VALID,20.159,VALID,224,VALID,0.0283717,
2001-12-06, 00:15:01,VALID,918.972,VALID,0,VALID,96.2477,VALID,-0.0339617,VALID,20.1654,VALID,29,VALID,0.189648,
2001-12-06, 00:16:00,VALID,918.975,VALID,0,VALID,96.3406,VALID,0,VALID,20.1816,VALID,42,VALID,0.499399,
2001-12-06, 00:17:00,VALID,918.988,VALID,0,VALID,96.3749,VALID,-0.0339617,VALID,20.1948,VALID,17,VALID,0.244922,
2001-12-06, 00:18:00,VALID,918.972,VALID,0,VALID,96.2719,VALID,-0.0679233,VALID,20.1915,VALID,16,VALID,0.00699013,
2001-12-06, 00:19:00,VALID,918.969,VALID,0,VALID,96.3673,VALID,-0.0849042,VALID,20.1945,VALID,16,VALID,0,
2001-12-06, 00:20:00,VALID,918.95,VALID,0,VALID,96.3749,VALID,-0.0339617,VALID,20.198,VALID,18,VALID,0,
2001-12-06, 00:21:01,VALID,918.939,VALID,0,VALID,96.3368,VALID,-0.0339617,VALID,20.1913,VALID,22,VALID,0,
2001-12-06, 00:22:00,VALID,918.911,VALID,0,VALID,96.2897,VALID,-0.0339617,VALID,20.1813,VALID,334,VALID,0.111637,
2001-12-06, 00:23:00,VALID,918.914,VALID,0,VALID,96.1435,VALID,-0.0509425,VALID,20.1657,VALID,264,VALID,0.0230469,
2001-12-06, 00:24:00,VALID,918.901,VALID,0,VALID,96.2465,VALID,-0.0339617,VALID,20.146,VALID,236,VALID,0.0554888,
2001-12-06, 00:25:00,VALID,918.881,VALID,0,VALID,96.3584,VALID,-0.0679233,VALID,20.156,VALID,231,VALID,0,
2001-12-06, 00:26:00,VALID,918.864,VALID,0,VALID,96.38,VALID,-0.0339617,VALID,20.1493,VALID,221,VALID,0.201891,
2001-12-06, 00:27:01,VALID,918.837,VALID,0,VALID,96.4538,VALID,-0.0169808,VALID,20.146,VALID,231,VALID,0.336719,
2001-12-06, 00:28:00,VALID,918.808,VALID,0,VALID,96.3012,VALID,-0.0339617,VALID,20.117,VALID,240,VALID,0.229367,
2001-12-06, 00:29:00,VALID,918.786,VALID,0,VALID,96.4258,VALID,-0.0679233,VALID,20.0973,VALID,237,VALID,0,
2001-12-06, 00:30:00,VALID,918.767,VALID,0,VALID,96.6127,VALID,-0.0339617,VALID,20.1301,VALID,241,VALID,0,
2001-12-06, 00:31:00,VALID,918.752,VALID,0,VALID,96.703,VALID,-0.0169808,VALID,20.1595,VALID,296,VALID,0.0238281,
2001-12-06, 00:32:00,VALID,918.748,VALID,0,VALID,96.7043,VALID,-0.0509425,VALID,20.1557,VALID,17,VALID,0.335337,
2001-12-06, 00:33:01,VALID,918.743,VALID,0,VALID,96.7043,VALID,-0.0679233,VALID,20.1756,VALID,31,VALID,0.499414,
2001-12-06, 00:34:00,VALID,918.744,VALID,0,VALID,96.6152,VALID,-0.0849042,VALID,20.1853,VALID,19,VALID,0.434416,
2001-12-06, 00:35:00,VALID,918.737,VALID,0,VALID,96.661,VALID,0,VALID,20.1873,VALID,18,VALID,0.33418,
2001-12-06, 00:36:00,VALID,918.728,VALID,0,VALID,96.5898,VALID,0,VALID,20.2,VALID,19,VALID,0.016226,
2001-12-06, 00:37:00,VALID,918.721,VALID,0,VALID,96.4029,VALID,0.0169808,VALID,20.2,VALID,20,VALID,0,
2001-12-06, 00:38:00,VALID,918.71,VALID,0,VALID,96.3113,VALID,0,VALID,20.1674,VALID,20,VALID,0,
2001-12-06, 00:39:01,VALID,918.702,VALID,0,VALID,96.2096,VALID,0.0679233,VALID,20.155,VALID,20,VALID,0,
2001-12-06, 00:40:00,VALID,918.684,VALID,0,VALID,96.1943,VALID,0.0509425,VALID,20.1381,VALID,18,VALID,0.010016,
2001-12-06, 00:41:01,VALID,918.692,VALID,0,VALID,96.1498,VALID,0.0339617,VALID,20.1381,VALID,17,VALID,0,
2001-12-06, 00:42:00,VALID,918.679,VALID,0,VALID,96.1371,VALID,0.0339617,VALID,20.1154,VALID,17,VALID,0,
2001-12-06, 00:43:01,VALID,918.672,VALID,0,VALID,96.1842,VALID,0.0849042,VALID,20.1286,VALID,17,VALID,0,
2001-12-06, 00:44:00,VALID,918.669,VALID,0,VALID,96.2363,VALID,0.0509425,VALID,20.1324,VALID,19,VALID,0.0222356,
2001-12-06, 00:45:01,VALID,918.642,VALID,0,VALID,96.277,VALID,0.0339617,VALID,20.1587,VALID,19,VALID,0,
2001-12-06, 00:46:00,VALID,918.632,VALID,0,VALID,96.2223,VALID,0.0509425,VALID,20.1448,VALID,19,VALID,0,
2001-12-06, 00:47:01,VALID,918.599,VALID,0,VALID,96.1626,VALID,0.0169808,VALID,20.1614,VALID,23,VALID,0.0513672,
2001-12-06, 00:48:00,VALID,918.559,VALID,0,VALID,96.1511,VALID,0,VALID,20.158,VALID,32,VALID,0,
2001-12-06, 00:49:01,VALID,918.529,VALID,0,VALID,96.1435,VALID,0.0339617,VALID,20.1614,VALID,33,VALID,0,
2001-12-06, 00:50:00,VALID,918.482,VALID,0,VALID,96.0812,VALID,0.0339617,VALID,20.1348,VALID,33,VALID,0,
2001-12-06, 00:51:01,VALID,918.453,VALID,0,VALID,96.1142,VALID,-0.0169808,VALID,20.1256,VALID,33,VALID,0,
2001-12-06, 00:52:00,VALID,918.422,VALID,0,VALID,96.118,VALID,0,VALID,20.1418,VALID,27,VALID,0,
2001-12-06, 00:53:01,VALID,918.394,VALID,0,VALID,96.1002,VALID,0,VALID,20.1219,VALID,19,VALID,0,
2001-12-06, 00:54:00,VALID,918.377,VALID,0,VALID,96.1041,VALID,0.0169808,VALID,20.1356,VALID,15,VALID,0.640419,
2001-12-06, 00:55:01,VALID,918.367,VALID,0,VALID,96.0672,VALID,-0.0169808,VALID,20.1224,VALID,12,VALID,0.78125,
2001-12-06, 00:56:01,VALID,918.367,VALID,0,VALID,96.0341,VALID,0,VALID,20.1095,VALID,7,VALID,0.569912,
2001-12-06, 00:57:01,VALID,918.368,VALID,0,VALID,95.9502,VALID,0,VALID,20.0774,VALID,360,VALID,0.449805,
2001-12-06, 00:58:00,VALID,918.358,VALID,0,VALID,95.9527,VALID,0,VALID,20.0481,VALID,3,VALID,0.551604,
2001-12-06, 00:59:01,VALID,918.345,VALID,0,VALID,96.0685,VALID,0,VALID,20.0121,VALID,357,VALID,0.547852,
2001-12-06, 01:00:01,VALID,918.332,VALID,0,VALID,96.0888,VALID,0,VALID,19.9736,VALID,348,VALID,0.884375,
2001-12-06, 01:01:01,VALID,918.31,VALID,0,VALID,96.2783,VALID,0,VALID,19.9313,VALID,19,VALID,0.80957,
2001-12-06, 01:02:01,VALID,918.291,VALID,0,VALID,96.4817,VALID,0,VALID,19.9321,VALID,21,VALID,0.55366,
2001-12-06, 01:03:01,VALID,918.274,VALID,0,VALID,96.5898,VALID,-0.0169808,VALID,19.9184,VALID,4,VALID,0.327734,
2001-12-06, 01:04:01,VALID,918.267,VALID,0,VALID,96.6776,VALID,-0.0169808,VALID,19.9345,VALID,15,VALID,0.367788,
2001-12-06, 01:05:01,VALID,918.262,VALID,0,VALID,96.6903,VALID,0,VALID,19.9385,VALID,15,VALID,0.0505859,
2001-12-06, 01:06:01,VALID,918.254,VALID,0,VALID,96.7411,VALID,0,VALID,19.9385,VALID,15,VALID,0.123355,
2001-12-06, 01:07:01,VALID,918.247,VALID,0,VALID,96.7322,VALID,0.0169808,VALID,19.9355,VALID,19,VALID,0.825,
2001-12-06, 01:08:01,VALID,918.245,VALID,0,VALID,96.7144,VALID,0.0169808,VALID,19.9219,VALID,14,VALID,0.558293,
2001-12-06, 01:09:01,VALID,918.24,VALID,0,VALID,96.778,VALID,0,VALID,19.9251,VALID,10,VALID,0.895898,
2001-12-06, 01:10:01,VALID,918.244,VALID,0,VALID,96.7284,VALID,0,VALID,19.9191,VALID,8,VALID,0.834087,
2001-12-06, 01:11:01,VALID,918.239,VALID,0,VALID,96.7984,VALID,0.0169808,VALID,19.8958,VALID,13,VALID,0.955469,
2001-12-06, 01:12:01,VALID,918.218,VALID,0,VALID,96.8187,VALID,0,VALID,19.8764,VALID,359,VALID,0.941707,
2001-12-06, 01:13:01,VALID,918.196,VALID,0,VALID,96.8848,VALID,0,VALID,19.8575,VALID,9,VALID,1.0082,
2001-12-06, 01:14:01,VALID,918.168,VALID,0,VALID,96.97,VALID,0.0169808,VALID,19.8384,VALID,8,VALID,0.71875,
2001-12-06, 01:15:01,VALID,918.167,VALID,0,VALID,97.0629,VALID,0,VALID,19.8217,VALID,15,VALID,0.656445,
2001-12-06, 01:16:01,VALID,918.161,VALID,0,VALID,97.0883,VALID,0,VALID,19.8023,VALID,13,VALID,0.391426,
2001-12-06, 01:17:01,VALID,918.14,VALID,0,VALID,97.1086,VALID,0,VALID,19.7864,VALID,13,VALID,0.405222,
2001-12-06, 01:18:00,VALID,918.116,VALID,0,VALID,97.1379,VALID,0,VALID,19.7733,VALID,13,VALID,0.29153,
2001-12-06, 01:19:00,VALID,918.109,VALID,0,VALID,97.19,VALID,0,VALID,19.7541,VALID,13,VALID,0.0195313,
2001-12-06, 01:20:00,VALID,918.097,VALID,0,VALID,97.1709,VALID,0.0169808,VALID,19.7477,VALID,8,VALID,0.307292,
2001-12-06, 01:21:00,VALID,918.086,VALID,0,VALID,97.1748,VALID,0,VALID,19.7387,VALID,3,VALID,0.071875,
2001-12-06, 01:22:00,VALID,918.069,VALID,0,VALID,97.246,VALID,-0.0169808,VALID,19.7318,VALID,3,VALID,0.0444079,
2001-12-06, 01:23:00,VALID,918.048,VALID,0,VALID,97.2803,VALID,0,VALID,19.735,VALID,3,VALID,0.0613281,
2001-12-06, 01:24:00,VALID,918.016,VALID,0,VALID,97.3121,VALID,-0.0169808,VALID,19.7348,VALID,3,VALID,0.376402,
2001-12-06, 01:25:00,VALID,917.989,VALID,0,VALID,97.2434,VALID,0.0169808,VALID,19.7223,VALID,3,VALID,0.382031,
2001-12-06, 01:26:00,VALID,917.985,VALID,0,VALID,97.2396,VALID,0,VALID,19.7156,VALID,4,VALID,0.201275,
2001-12-06, 01:27:00,VALID,917.984,VALID,0,VALID,97.1493,VALID,-0.0169808,VALID,19.7129,VALID,4,VALID,0.0128906,
2001-12-06, 01:28:00,VALID,918.001,VALID,0,VALID,97.0857,VALID,0,VALID,19.6935,VALID,4,VALID,0,
2001-12-06, 01:29:00,VALID,918.017,VALID,0,VALID,97.0705,VALID,-0.0169808,VALID,19.6739,VALID,4,VALID,0,
2001-12-06, 01:30:00,VALID,918.025,VALID,0,VALID,97.0094,VALID,-0.0339617,VALID,19.6739,VALID,4,VALID,0,
2001-12-06, 01:31:00,VALID,918.038,VALID,0,VALID,97.0374,VALID,0,VALID,19.6674,VALID,352,VALID,0.08125,
2001-12-06, 01:32:00,VALID,918.048,VALID,0,VALID,97.1112,VALID,0,VALID,19.6836,VALID,336,VALID,0.284856,
2001-12-06, 01:33:00,VALID,918.057,VALID,0,VALID,97.1213,VALID,0,VALID,19.6702,VALID,336,VALID,0.00292969,
2001-12-06, 01:34:00,VALID,918.048,VALID,0,VALID,97.0857,VALID,-0.0169808,VALID,19.6798,VALID,337,VALID,0,
2001-12-06, 01:35:00,VALID,918.026,VALID,0,VALID,96.8988,VALID,0.0169808,VALID,19.6602,VALID,341,VALID,0,
2001-12-06, 01:36:00,VALID,918.024,VALID,0,VALID,96.834,VALID,0.0679233,VALID,19.6503,VALID,357,VALID,0.0909455,
2001-12-06, 01:37:00,VALID,918.006,VALID,0,VALID,96.7805,VALID,0,VALID,19.6413,VALID,5,VALID,0.0714844,
2001-12-06, 01:38:00,VALID,917.99,VALID,0,VALID,96.7322,VALID,0.0339617,VALID,19.6247,VALID,5,VALID,0,
2001-12-06, 01:39:00,VALID,918.005,VALID,0,VALID,96.7869,VALID,0.0339617,VALID,19.6249,VALID,5,VALID,0,
2001-12-06, 01:40:00,VALID,918.017,VALID,0,VALID,96.8543,VALID,0,VALID,19.6287,VALID,5,VALID,0,
2001-12-06, 01:41:00,VALID,918.036,VALID,0,VALID,96.9128,VALID,-0.0169808,VALID,19.6354,VALID,5,VALID,0,
2001-12-06, 01:42:00,VALID,918.042,VALID,0,VALID,96.9204,VALID,0,VALID,19.6354,VALID,5,VALID,0.224712,
2001-12-06, 01:43:00,VALID,918.058,VALID,0,VALID,96.9535,VALID,0,VALID,19.6351,VALID,5,VALID,0.176367,
2001-12-06, 01:44:00,VALID,918.072,VALID,0,VALID,97.0412,VALID,0.0169808,VALID,19.6418,VALID,6,VALID,0.369591,
2001-12-06, 01:45:00,VALID,918.066,VALID,0,VALID,97.0972,VALID,0.0169808,VALID,19.6707,VALID,13,VALID,0.511328,
2001-12-06, 01:46:00,VALID,918.078,VALID,0,VALID,97.0921,VALID,0,VALID,19.6806,VALID,14,VALID,0.764597,
2001-12-06, 01:47:00,VALID,918.069,VALID,0,VALID,97.1112,VALID,0.0169808,VALID,19.7102,VALID,6,VALID,0.937695,
2001-12-06, 01:48:00,VALID,918.075,VALID,0,VALID,97.0794,VALID,0.0339617,VALID,19.6995,VALID,345,VALID,0.898838,
2001-12-06, 01:49:00,VALID,918.074,VALID,0,VALID,97.0578,VALID,0,VALID,19.6868,VALID,357,VALID,0.527344,
2001-12-06, 01:50:00,VALID,918.087,VALID,0,VALID,97.1213,VALID,-0.0339617,VALID,19.7005,VALID,355,VALID,0.754934,
2001-12-06, 01:51:00,VALID,918.098,VALID,0,VALID,97.0501,VALID,-0.0849042,VALID,19.691,VALID,348,VALID,0.565234,
2001-12-06, 01:52:00,VALID,918.102,VALID,0,VALID,97.1099,VALID,-0.101885,VALID,19.6915,VALID,4,VALID,0.749199,
2001-12-06, 01:53:00,VALID,918.083,VALID,0,VALID,97.1175,VALID,-0.101885,VALID,19.6913,VALID,5,VALID,0.844141,
2001-12-06, 01:54:00,VALID,918.07,VALID,0,VALID,97.0247,VALID,-0.101885,VALID,19.6751,VALID,2,VALID,0.879317,
2001-12-06, 01:55:00,VALID,918.054,VALID,0,VALID,96.9916,VALID,-0.101885,VALID,19.6654,VALID,1,VALID,0.700391,
2001-12-06, 01:56:00,VALID,918.021,VALID,0,VALID,96.9916,VALID,-0.101885,VALID,19.6684,VALID,359,VALID,0.682091,
2001-12-06, 01:57:00,VALID,918.023,VALID,0,VALID,96.8988,VALID,-0.101885,VALID,19.6823,VALID,335,VALID,0.794531,
2001-12-06, 01:58:00,VALID,918.006,VALID,0,VALID,96.8276,VALID,-0.0849042,VALID,19.659,VALID,329,VALID,0.783923,
2001-12-06, 01:59:00,VALID,918.015,VALID,0,VALID,96.8899,VALID,-0.0849042,VALID,19.6622,VALID,312,VALID,0.419336,
2001-12-06, 02:00:00,VALID,918.017,VALID,0,VALID,96.9815,VALID,-0.0849042,VALID,19.6816,VALID,318,VALID,0.391226,
2001-12-06, 02:01:00,VALID,918.006,VALID,0,VALID,96.9891,VALID,-0.0849042,VALID,19.6848,VALID,298,VALID,0.01875,
2001-12-06, 02:02:00,VALID,918.008,VALID,0,VALID,97.0005,VALID,-0.101885,VALID,19.6818,VALID,298,VALID,0,
2001-12-06, 02:03:00,VALID,918.017,VALID,0,VALID,97.0171,VALID,-0.0679233,VALID,19.6943,VALID,305,VALID,0.000585938,
2001-12-06, 02:04:00,VALID,918.011,VALID,0,VALID,97.0896,VALID,-0.101885,VALID,19.7112,VALID,339,VALID,0.189103,
2001-12-06, 02:05:00,VALID,918.001,VALID,0,VALID,97.1913,VALID,-0.0339617,VALID,19.7226,VALID,360,VALID,0.587305,
2001-12-06, 02:06:00,VALID,917.981,VALID,0,VALID,97.2193,VALID,0.0169808,VALID,19.7606,VALID,11,VALID,1.25822,
2001-12-06, 02:07:00,VALID,917.962,VALID,0,VALID,97.073,VALID,0,VALID,19.7509,VALID,11,VALID,1.09648,
2001-12-06, 02:08:00,VALID,917.954,VALID,0,VALID,97.0921,VALID,0,VALID,19.7676,VALID,3,VALID,0.811498,
2001-12-06, 02:09:00,VALID,917.93,VALID,0,VALID,96.9675,VALID,0,VALID,19.7738,VALID,5,VALID,0.856836,
2001-12-06, 02:10:00,VALID,917.894,VALID,0,VALID,96.8696,VALID,0,VALID,19.7643,VALID,19,VALID,0.741571,
2001-12-06, 02:11:00,VALID,917.878,VALID,0,VALID,96.7627,VALID,0.0169808,VALID,19.7678,VALID,357,VALID,0.745117,
2001-12-06, 02:12:00,VALID,917.844,VALID,0,VALID,96.6598,VALID,0.0339617,VALID,19.7482,VALID,354,VALID,0.58153,
2001-12-06, 02:13:00,VALID,917.836,VALID,0,VALID,96.6305,VALID,0.0169808,VALID,19.7474,VALID,351,VALID,0.838477,
2001-12-06, 02:14:00,VALID,917.829,VALID,0,VALID,96.5237,VALID,0,VALID,19.7223,VALID,360,VALID,0.748972,
2001-12-06, 02:15:00,VALID,917.813,VALID,0,VALID,96.6038,VALID,0.0339617,VALID,19.7218,VALID,7,VALID,1.07422,
2001-12-06, 02:16:00,VALID,917.805,VALID,0,VALID,96.5924,VALID,0.0169808,VALID,19.7032,VALID,2,VALID,0.929487,
2001-12-06, 02:17:00,VALID,917.79,VALID,0,VALID,96.6661,VALID,0.0339617,VALID,19.6774,VALID,3,VALID,0.841016,
2001-12-06, 02:18:00,VALID,917.783,VALID,0,VALID,96.7246,VALID,-0.0169808,VALID,19.648,VALID,356,VALID,0.673314,
2001-12-06, 02:19:00,VALID,917.799,VALID,0,VALID,96.778,VALID,0.0339617,VALID,19.6351,VALID,354,VALID,0.571875,
2001-12-06, 02:20:00,VALID,917.815,VALID,0,VALID,96.8746,VALID,0.0169808,VALID,19.609,VALID,355,VALID,0.620393,
2001-12-06, 02:21:00,VALID,917.824,VALID,0,VALID,96.9395,VALID,0,VALID,19.616,VALID,352,VALID,0.551367,
2001-12-06, 02:22:00,VALID,917.82,VALID,0,VALID,96.9509,VALID,0,VALID,19.5993,VALID,354,VALID,0.478207,
2001-12-06, 02:23:00,VALID,917.822,VALID,0,VALID,96.9052,VALID,0.0169808,VALID,19.58,VALID,348,VALID,0.761719,
2001-12-06, 02:24:00,VALID,917.81,VALID,0,VALID,96.8721,VALID,0.0509425,VALID,19.5501,VALID,339,VALID,0.516627,
2001-12-06, 02:25:00,VALID,917.816,VALID,0,VALID,96.9103,VALID,0.0169808,VALID,19.5576,VALID,345,VALID,0.635547,
2001-12-06, 02:26:00,VALID,917.783,VALID,0,VALID,96.8899,VALID,0,VALID,19.5342,VALID,341,VALID,0.605058,
2001-12-06, 02:27:00,VALID,917.785,VALID,0,VALID,96.97,VALID,0.0169808,VALID,19.5477,VALID,318,VALID,0.641797,
2001-12-06, 02:28:00,VALID,917.77,VALID,0,VALID,97.0222,VALID,0.0169808,VALID,19.5472,VALID,333,VALID,0.319712,
2001-12-06, 02:29:00,VALID,917.75,VALID,0,VALID,96.9611,VALID,0,VALID,19.5576,VALID,17,VALID,1.08066,
2001-12-06, 02:30:00,VALID,917.733,VALID,0,VALID,96.9281,VALID,0,VALID,19.5638,VALID,355,VALID,0.531456,
2001-12-06, 02:31:00,VALID,917.735,VALID,0,VALID,96.8746,VALID,0,VALID,19.5675,VALID,3,VALID,0.629492,
2001-12-06, 02:32:00,VALID,917.721,VALID,0,VALID,96.8874,VALID,0.0169808,VALID,19.5641,VALID,328,VALID,0.188702,
2001-12-06, 02:33:00,VALID,917.711,VALID,0,VALID,96.895,VALID,0.0679233,VALID,19.5571,VALID,352,VALID,0.332812,
2001-12-06, 02:34:00,VALID,917.72,VALID,0,VALID,96.8518,VALID,0.0169808,VALID,19.5477,VALID,356,VALID,0.968133,
2001-12-06, 02:35:00,VALID,917.724,VALID,0,VALID,96.7869,VALID,0,VALID,19.5221,VALID,12,VALID,1.42227,
2001-12-06, 02:36:00,VALID,917.726,VALID,0,VALID,96.867,VALID,0,VALID,19.5158,VALID,3,VALID,0.456931,
2001-12-06, 02:37:00,VALID,917.736,VALID,0,VALID,96.9662,VALID,0,VALID,19.5255,VALID,2,VALID,0.801758,
2001-12-06, 02:38:00,VALID,917.734,VALID,0,VALID,96.9827,VALID,0.0509425,VALID,19.5119,VALID,15,VALID,1.02734,
2001-12-06, 02:39:00,VALID,917.74,VALID,0,VALID,96.9014,VALID,0.0169808,VALID,19.5062,VALID,5,VALID,1.02148,
2001-12-06, 02:40:00,VALID,917.757,VALID,0,VALID,96.7933,VALID,0.0169808,VALID,19.4838,VALID,5,VALID,0.96855,
2001-12-06, 02:41:00,VALID,917.746,VALID,0,VALID,96.7093,VALID,0,VALID,19.4679,VALID,353,VALID,0.696094,
2001-12-06, 02:42:00,VALID,917.751,VALID,0,VALID,96.6381,VALID,0.0169808,VALID,19.4515,VALID,9,VALID,0.98972,
2001-12-06, 02:43:00,VALID,917.75,VALID,0,VALID,96.6051,VALID,0,VALID,19.4348,VALID,11,VALID,0.952344,
2001-12-06, 02:44:00,VALID,917.748,VALID,0,VALID,96.4805,VALID,0.0169808,VALID,19.4445,VALID,13,VALID,0.719551,
2001-12-06, 02:45:00,VALID,917.741,VALID,0,VALID,96.427,VALID,0,VALID,19.4545,VALID,338,VALID,0.142188,
2001-12-06, 02:46:00,VALID,917.754,VALID,0,VALID,96.3724,VALID,0.0169808,VALID,19.4612,VALID,330,VALID,0.446957,
2001-12-06, 02:47:00,VALID,917.733,VALID,0,VALID,96.3317,VALID,0,VALID,19.4642,VALID,308,VALID,0.421875,
2001-12-06, 02:48:00,VALID,917.75,VALID,0,VALID,96.3012,VALID,0,VALID,19.4572,VALID,303,VALID,0.104567,
2001-12-06, 02:49:00,VALID,917.747,VALID,0,VALID,96.2732,VALID,0,VALID,19.4609,VALID,303,VALID,0.2,
2001-12-06, 02:50:00,VALID,917.759,VALID,0,VALID,96.2528,VALID,0,VALID,19.4609,VALID,305,VALID,0.0863487,
2001-12-06, 02:51:00,VALID,917.739,VALID,0,VALID,96.3686,VALID,0.0509425,VALID,19.4671,VALID,352,VALID,0.195508,
2001-12-06, 02:52:00,VALID,917.74,VALID,0,VALID,96.249,VALID,0,VALID,19.4776,VALID,18,VALID,0.0398638,
2001-12-06, 02:53:00,VALID,917.723,VALID,0,VALID,96.2045,VALID,0,VALID,19.4547,VALID,3,VALID,0.120593,
2001-12-06, 02:54:00,VALID,917.704,VALID,0,VALID,96.2007,VALID,0.0169808,VALID,19.4316,VALID,3,VALID,0,
2001-12-06, 02:55:00,VALID,917.68,VALID,0,VALID,96.2401,VALID,0,VALID,19.4122,VALID,3,VALID,0,
2001-12-06, 02:56:00,VALID,917.673,VALID,0,VALID,96.2325,VALID,0.0169808,VALID,19.406,VALID,12,VALID,0,
2001-12-06, 02:57:00,VALID,917.674,VALID,0,VALID,96.2223,VALID,0,VALID,19.3998,VALID,16,VALID,0,
2001-12-06, 02:58:00,VALID,917.669,VALID,0,VALID,96.2465,VALID,0.0339617,VALID,19.403,VALID,16,VALID,0,
2001-12-06, 02:59:00,VALID,917.669,VALID,0,VALID,96.3228,VALID,0,VALID,19.4224,VALID,320,VALID,0.327148,
2001-12-06, 03:00:00,VALID,917.666,VALID,0,VALID,96.2821,VALID,0,VALID,19.4353,VALID,341,VALID,0.130609,
2001-12-06, 03:01:00,VALID,917.634,VALID,0,VALID,96.1829,VALID,0,VALID,19.4256,VALID,2,VALID,0.0117188,
2001-12-06, 03:02:00,VALID,917.617,VALID,0,VALID,96.1409,VALID,0.0169808,VALID,19.4157,VALID,2,VALID,0.000411184,
2001-12-06, 03:03:00,VALID,917.61,VALID,0,VALID,96.1727,VALID,0,VALID,19.4256,VALID,23,VALID,0.267969,
2001-12-06, 03:04:00,VALID,917.611,VALID,0,VALID,96.1753,VALID,-0.0169808,VALID,19.4189,VALID,357,VALID,0.439103,
2001-12-06, 03:05:00,VALID,917.623,VALID,0,VALID,96.0608,VALID,0,VALID,19.4458,VALID,345,VALID,0.817187,
2001-12-06, 03:06:00,VALID,917.629,VALID,0,VALID,95.9044,VALID,-0.0169808,VALID,19.4286,VALID,11,VALID,0.461965,
2001-12-06, 03:07:00,VALID,917.642,VALID,0,VALID,95.6959,VALID,0,VALID,19.4097,VALID,12,VALID,0.453711,
2001-12-06, 03:08:00,VALID,917.645,VALID,0,VALID,95.6971,VALID,-0.0169808,VALID,19.3804,VALID,2,VALID,0.231971,
2001-12-06, 03:09:00,VALID,917.641,VALID,0,VALID,95.865,VALID,0.0169808,VALID,19.3839,VALID,336,VALID,0.536523,
2001-12-06, 03:10:00,VALID,917.64,VALID,0,VALID,96.0608,VALID,0,VALID,19.4095,VALID,312,VALID,0.360197,
2001-12-06, 03:11:00,VALID,917.628,VALID,0,VALID,96.0672,VALID,-0.0169808,VALID,19.4353,VALID,265,VALID,0,
2001-12-06, 03:12:00,VALID,917.617,VALID,0,VALID,96.1536,VALID,0.0169808,VALID,19.4609,VALID,265,VALID,0.0374599,
2001-12-06, 03:13:00,VALID,917.61,VALID,0,VALID,96.2605,VALID,0.0169808,VALID,19.4609,VALID,265,VALID,0,
2001-12-06, 03:14:00,VALID,917.596,VALID,0,VALID,96.338,VALID,0.0169808,VALID,19.4709,VALID,265,VALID,0,
2001-12-06, 03:15:00,VALID,917.591,VALID,0,VALID,96.3762,VALID,0,VALID,19.4714,VALID,263,VALID,0,
2001-12-06, 03:16:00,VALID,917.594,VALID,0,VALID,96.4385,VALID,0.0169808,VALID,19.4416,VALID,262,VALID,0.168069,
2001-12-06, 03:17:00,VALID,917.59,VALID,0,VALID,96.5351,VALID,0.0169808,VALID,19.4346,VALID,262,VALID,0.127344,
2001-12-06, 03:18:00,VALID,917.589,VALID,0,VALID,96.6127,VALID,0,VALID,19.4284,VALID,262,VALID,0,
2001-12-06, 03:19:00,VALID,917.575,VALID,0,VALID,96.5542,VALID,0,VALID,19.4256,VALID,15,VALID,0.112305,
2001-12-06, 03:20:00,VALID,917.547,VALID,0,VALID,96.4487,VALID,0,VALID,19.4227,VALID,23,VALID,0.455329,
2001-12-06, 03:21:00,VALID,917.524,VALID,0,VALID,96.2401,VALID,0,VALID,19.3933,VALID,9,VALID,0.444336,
2001-12-06, 03:22:00,VALID,917.526,VALID,0,VALID,96.1969,VALID,0,VALID,19.3677,VALID,340,VALID,0.426192,
2001-12-06, 03:23:00,VALID,917.525,VALID,0,VALID,96.1689,VALID,0.0169808,VALID,19.361,VALID,342,VALID,0.0451172,
2001-12-06, 03:24:00,VALID,917.52,VALID,0,VALID,96.0761,VALID,0,VALID,19.3287,VALID,342,VALID,0.0336538,
2001-12-06, 03:25:00,VALID,917.511,VALID,0,VALID,96.1816,VALID,0,VALID,19.3258,VALID,342,VALID,0.199219,
2001-12-06, 03:26:00,VALID,917.511,VALID,0,VALID,96.2884,VALID,0,VALID,19.322,VALID,334,VALID,0.256373,
2001-12-06, 03:27:00,VALID,917.514,VALID,0,VALID,96.3673,VALID,-0.0169808,VALID,19.3384,VALID,350,VALID,0.132031,
2001-12-06, 03:28:00,VALID,917.516,VALID,0,VALID,96.3444,VALID,0.0169808,VALID,19.3643,VALID,351,VALID,0,
2001-12-06, 03:29:00,VALID,917.523,VALID,0,VALID,96.221,VALID,0,VALID,19.3675,VALID,351,VALID,0,
2001-12-06, 03:30:00,VALID,917.499,VALID,0,VALID,96.1333,VALID,0,VALID,19.3745,VALID,351,VALID,0,
2001-12-06, 03:31:00,VALID,917.499,VALID,0,VALID,96.029,VALID,0,VALID,19.3451,VALID,351,VALID,0,
2001-12-06, 03:32:00,VALID,917.483,VALID,0,VALID,95.9845,VALID,0,VALID,19.3322,VALID,351,VALID,0,
2001-12-06, 03:33:00,VALID,917.472,VALID,0,VALID,96.0227,VALID,0,VALID,19.3161,VALID,360,VALID,0.0126953,
2001-12-06, 03:34:00,VALID,917.478,VALID,0,VALID,96.043,VALID,-0.0169808,VALID,19.3168,VALID,22,VALID,0,
2001-12-06, 03:35:00,VALID,917.471,VALID,0,VALID,96.0163,VALID,0.0679233,VALID,19.3059,VALID,55,VALID,0,
2001-12-06, 03:36:00,VALID,917.465,VALID,0,VALID,95.9476,VALID,0.101885,VALID,19.2925,VALID,60,VALID,0,
2001-12-06, 03:37:00,VALID,917.454,VALID,0,VALID,96.0125,VALID,0.101885,VALID,19.283,VALID,60,VALID,0,
2001-12-06, 03:38:00,VALID,917.436,VALID,0,VALID,95.9922,VALID,0.0849042,VALID,19.2565,VALID,60,VALID,0,